Location: Wooded Hills
(32.5240°N, 97.2692°W)
Time: 13:59:09
(UTC+00:00)

ISS - Visible Passes

Search period start: 29 September 2022 00:00
Search period end: 09 October 2022 00:00
Orbit: 414 x 417 km, 51.6° (Epoch: 29 September)

Date Brightness Start Highest point End Pass type
(mag) Time Alt. Az. Time Alt. Az. Time Alt. Az.
02 Oct -0.8 02:19:52 10° NNW 02:20:23 14° NNW 02:20:23 14° NNW visible
03 Oct -2.1 01:31:24 10° NNW 01:33:41 22° NNE 01:33:41 22° NNE visible
04 Oct -1.6 00:43:10 10° N 00:45:05 14° NNE 00:47:00 10° ENE visible
04 Oct -1.1 02:18:45 10° NW 02:19:58 20° WNW 02:19:58 20° WNW visible
05 Oct -3.9 01:29:51 10° NW 01:33:11 70° NE 01:33:27 65° E visible
06 Oct -3.0 00:41:07 10° NNW 00:44:14 35° NE 00:47:05 12° ESE visible
06 Oct -0.8 02:18:36 10° W 02:20:00 15° WSW 02:20:00 15° WSW visible
07 Oct -2.1 01:28:55 10° WNW 01:31:54 30° SW 01:33:49 17° S visible
08 Oct -3.4 00:39:42 10° NW 00:43:02 65° SW 00:46:19 10° SE visible
